QPF
0.00 0.00 0.00 0.00 0.00 0.00 0.00 0.00 0.00 0.00 0.00 0.00 0.02 0.04 0.05 0.00 0.00 0.00 0.00 0.00 0.02 0.01 0.00 0.00 0.00 0.00 0.00 0.00 0.00 0.00 0.00 0.00 0.00 0.00 0.00 0.00 0.00 0.00 0.00 0.00 0.00 0.00 0.00
0.00 0.00 0.00 0.00 0.00 0.00 0.00 0.00 0.00 0.00 0.00 0.01 0.00 0.00 0.01 0.00 0.00 0.00 0.00 0.00 0.01 0.01 0.00 0.00 0.00 0.00 0.02 0.01 0.00 0.00 0.00 0.00 0.00 0.00 0.00 0.00 0.00 0.00 0.00 0.00 0.00 0.00 0.00
0.00 0.00 0.00 0.00 0.00 0.00 0.00 0.00 0.00 0.00 0.00 0.00 0.00 0.00 0.00 0.00 0.00 0.00 0.02 0.07 0.07 0.03 0.02 0.01 0.00 0.01 0.02 0.01 0.02 0.00 0.00 0.00 0.00 0.00 0.00 0.00 0.00 0.00 0.00 0.00 0.00 0.00 0.00
0.00 0.00 0.00 0.00 0.00 0.00 0.00 0.00 0.00 0.00 0.00 0.00 0.00 0.00 0.00 0.00 0.00 0.06 0.12 0.10 0.04 0.01 0.00 0.00 0.00 0.01 0.04 0.05 0.01 0.01 0.01 0.04 0.02 0.01 0.00 0.00 0.00 0.00 0.00 0.00 0.00 0.00 0.00
0.00 0.00 0.00 0.00 0.00 0.00 0.00 0.00 0.00 0.00 0.00 0.00 0.00 0.00 0.00 0.01 0.00 0.00 0.04 0.06 0.11 0.13 0.05 0.03 0.00 0.00 0.03 0.14 0.05 0.04 0.07 0.07 0.03 0.04 0.02 0.00 0.00 0.02 0.02 0.02 0.05 0.01 0.00
0.00 0.00 0.00 0.00 0.00 0.00 0.00 0.00 0.00 0.00 0.00 0.00 0.00 0.00 0.01 0.00 0.00 0.02 0.03 0.06 0.13 0.09 0.05 0.03 0.00 0.01 0.02 0.07 0.05 0.02 0.02 0.05 0.10 0.17 0.06 0.05 0.02 0.05 0.05 0.06 0.09 0.14 0.03
0.00 0.00 0.00 0.00 0.00 0.00 0.00 0.00 0.00 0.00 0.00 0.00 0.00 0.00 0.00 0.00 0.01 0.00 0.00 0.02 0.03 0.06 0.06 0.06 0.03 0.00 0.08 0.07 0.16 0.18 0.05 0.03 0.00 0.02 0.04 0.05 0.06 0.07 0.06 0.05 0.06 0.05 0.01
0.05 0.03 0.01 0.00 0.00 0.00 0.00 0.00 0.00 0.00 0.00 0.00 0.00 0.00 0.00 0.00 0.00 0.00 0.01 0.00 0.00 0.01 0.03 0.03 0.03 0.00 0.02 0.07 0.13 0.10 0.09 0.10 0.08 0.05 0.00 0.01 0.01 0.01 0.00 0.00 0.00 0.00 0.00
0.15 0.18 0.10 0.01 0.00 0.01 0.00 0.00 0.00 0.00 0.00 0.00 0.00 0.00 0.00 0.00 0.00 0.00 0.00 0.00 0.00 0.00 0.00 0.00 0.01 0.00 0.00 0.03 0.06 0.03 0.04 0.10 0.12 0.06 0.01 0.00 0.00 0.00 0.00 0.00 0.00 0.00 0.00
0.16 0.14 0.15 0.02 0.00 0.01 0.01 0.01 0.01 0.01 0.01 0.00 0.00 0.00 0.00 0.00 0.00 0.00 0.00 0.00 0.00 0.00 0.00 0.04 0.20 0.10 0.00 0.02 0.01 0.06 0.08 0.09 0.06 0.04 0.00 0.00 0.00 0.00 0.00 0.00 0.00 0.00 0.00
0.05 0.11 0.07 0.01 0.01 0.01 0.01 0.01 0.01 0.01 0.02 0.02 0.00 0.01 0.00 0.00 0.00 0.00 0.00 0.00 0.00 0.04 0.09 0.12 0.13 0.23 0.05 0.00 0.00 0.03 0.06 0.06 0.03 0.02 0.01 0.00 0.00 0.00 0.00 0.00 0.00 0.00 0.00
0.00 0.01 0.03 0.03 0.01 0.01 0.01 0.01 0.00 0.00 0.01 0.02 0.03 0.04 0.01 0.00 0.01 0.06 0.01 0.00 0.02 0.06 0.04 0.07 0.06 0.11 0.04 0.01 0.00 0.00 0.00 0.00 0.01 0.00 0.00 0.00 0.00 0.00 0.00 0.00 0.00 0.00 0.00
0.00 0.00 0.01 0.07 0.16 0.19 0.21 0.12 0.00 0.01 0.00 0.02 0.06 0.11 0.15 0.15 0.11 0.15 0.08 0.04 0.02 0.05 0.06 0.02 0.02 0.03 0.00 0.00 0.00 0.00 0.00 0.00 0.00 0.00 0.00 0.00 0.00 0.00 0.00 0.00 0.00 0.00 0.00
0.00 0.00 0.01 0.17 0.32 0.28 0.32 0.16 0.01 0.00 0.00 0.00 0.01 0.03 0.16 0.14 0.02 0.03 0.01 0.02 0.02 0.00 0.00 0.00 0.01 0.00 0.00 0.00 0.00 0.00 0.00 0.00 0.00 0.00 0.00 0.00 0.00 0.00 0.00 0.00 0.00 0.00 0.00
0.00 0.00 0.00 0.10 0.15 0.17 0.22 0.36 0.29 0.18 0.13 0.02 0.06 0.18 0.14 0.07 0.01 0.01 0.00 0.01 0.00 0.00 0.00 0.00 0.00 0.00 0.00 0.00 0.00 0.00 0.00 0.00 0.00 0.00 0.00 0.00 0.00 0.00 0.00 0.00 0.00 0.00 0.00
0.00 0.00 0.01 0.04 0.10 0.11 0.20 0.34 0.52 0.50 0.46 0.30 0.20 0.14 0.18 0.17 0.09 0.05 0.01 0.00 0.00 0.00 0.00 0.00 0.00 0.00 0.00 0.00 0.00 0.00 0.00 0.00 0.00 0.00 0.00 0.00 0.00 0.00 0.00 0.00 0.00 0.00 0.00
0.00 0.00 0.00 0.01 0.02 0.05 0.11 0.11 0.06 0.07 0.11 0.09 0.05 0.09 0.20 0.21 0.18 0.11 0.05 0.00 0.00 0.00 0.00 0.00 0.00 0.00 0.00 0.00 0.00 0.00 0.00 0.00 0.00 0.00 0.00 0.00 0.00 0.00 0.00 0.00 0.00 0.00 0.00
0.00 0.00 0.00 0.00 0.00 0.01 0.08 0.16 0.09 0.05 0.04 0.06 0.03 0.02 0.05 0.04 0.05 0.05 0.03 0.03 0.01 0.00 0.00 0.00 0.00 0.00 0.00 0.00 0.00 0.00 0.00 0.00 0.00 0.00 0.00 0.00 0.00 0.00 0.00 0.00 0.00 0.00 0.00
0.00 0.00 0.00 0.00 0.00 0.01 0.06 0.08 0.04 0.03 0.03 0.04 0.03 0.00 0.01 0.03 0.02 0.02 0.01 0.01 0.00 0.00 0.00 0.00 0.00 0.00 0.00 0.00 0.00 0.00 0.00 0.00 0.00 0.00 0.00 0.00 0.00 0.00 0.00 0.00 0.00 0.00 0.00
0.00 0.00 0.00 0.00 0.00 0.00 0.00 0.03 0.03 0.03 0.01 0.00 0.01 0.00 0.01 0.01 0.00 0.00 0.00 0.00 0.00 0.00 0.00 0.00 0.00 0.00 0.00 0.00 0.00 0.00 0.00 0.00 0.00 0.00 0.00 0.00 0.00 0.00 0.00 0.00 0.00 0.00 0.00
0.00 0.00 0.00 0.00 0.00 0.00 0.00 0.00 0.00 0.00 0.00 0.00 0.00 0.00 0.00 0.01 0.00 0.00 0.00 0.00 0.00 0.00 0.00 0.00 0.00 0.00 0.00 0.00 0.00 0.00 0.00 0.00 0.00 0.00 0.00 0.00 0.00 0.00 0.00 0.00 0.00 0.00 0.00
0.00 0.00 0.00 0.00 0.00 0.00 0.01 0.04 0.01 0.00 0.00 0.00 0.00 0.00 0.01 0.00 0.00 0.00 0.00 0.00 0.00 0.00 0.00 0.00 0.00 0.00 0.00 0.00 0.00 0.00 0.00 0.00 0.00 0.00 0.00 0.00 0.00 0.00 0.00 0.00 0.00 0.00 0.00
0.00 0.00 0.00 0.00 0.00 0.02 0.03 0.02 0.04 0.03 0.00 0.00 0.01 0.01 0.00 0.00 0.00 0.00 0.00 0.00 0.00 0.00 0.00 0.00 0.00 0.00 0.00 0.00 0.00 0.00 0.00 0.00 0.00 0.00 0.00 0.00 0.00 0.00 0.00 0.00 0.00 0.00 0.00
0.01 0.00 0.00 0.00 0.01 0.00 0.01 0.00 0.00 0.00 0.01 0.00 0.00 0.00 0.00 0.00 0.00 0.00 0.00 0.00 0.00 0.00 0.00 0.00 0.00 0.00 0.00 0.00 0.00 0.00 0.00 0.00 0.00 0.00 0.00 0.00 0.00 0.00 0.00 0.00 0.00 0.00 0.00
0.03 0.01 0.00 0.00 0.01 0.00 0.00 0.00 0.00 0.00 0.00 0.01 0.01 0.02 0.00 0.00 0.00 0.00 0.00 0.00 0.00 0.00 0.00 0.00 0.00 0.00 0.00 0.00 0.00 0.01 0.01 0.01 0.00 0.00 0.00 0.00 0.00 0.00 0.00 0.00 0.00 0.00 0.00
0.11 0.07 0.05 0.03 0.02 0.01 0.00 0.00 0.00 0.00 0.00 0.00 0.01 0.04 0.01 0.00 0.00 0.00 0.00 0.00 0.00 0.00 0.00 0.00 0.00 0.00 0.00 0.00 0.01 0.01 0.01 0.00 0.00 0.00 0.00 0.00 0.00 0.00 0.00 0.00 0.00 0.00 0.00
MSLP
1007.66 1008.27 1009.06 1009.72 1010.28 1010.86 1011.05 1011.49 1011.95 1012.20 1012.45 1012.89 1013.45 1013.87 1014.34 1014.64 1015.16 1015.29 1015.23 1014.99 1015.28 1015.59 1015.55 1015.43 1015.46 1015.66 1015.42 1014.85 1014.66 1015.04 1014.68 1014.81 1014.72 1014.54 1014.28 1014.02 1014.31 1014.60 1014.68 1014.76 1014.65 1014.43 1014.13
1006.83 1007.54 1008.25 1008.94 1009.44 1009.94 1010.42 1010.90 1011.47 1011.95 1012.20 1012.64 1013.04 1013.42 1013.93 1014.28 1014.55 1014.65 1014.84 1014.94 1015.03 1014.98 1015.03 1015.13 1015.12 1015.14 1015.31 1015.35 1015.12 1014.97 1014.86 1014.85 1014.90 1014.64 1014.74 1014.51 1014.37 1014.21 1014.27 1014.43 1014.47 1014.01 1013.65
1006.24 1006.85 1007.49 1008.08 1008.72 1009.07 1009.74 1010.17 1010.85 1011.40 1011.85 1012.03 1012.64 1013.17 1013.53 1013.81 1014.07 1014.21 1014.48 1014.63 1014.55 1014.74 1014.83 1014.55 1014.62 1014.92 1015.05 1015.06 1015.19 1014.60 1014.66 1015.12 1014.94 1015.05 1014.71 1014.59 1014.23 1013.78 1013.67 1013.84 1013.75 1013.64 1013.43
1005.54 1006.02 1006.61 1007.25 1007.73 1008.24 1008.84 1009.58 1009.93 1010.55 1011.11 1011.52 1011.84 1012.47 1012.97 1013.28 1013.47 1013.59 1014.03 1014.37 1014.40 1014.27 1014.35 1014.19 1014.17 1014.38 1014.70 1014.82 1014.84 1014.89 1014.71 1014.94 1014.77 1014.76 1014.51 1014.12 1013.86 1013.57 1013.33 1013.48 1013.65 1013.67 1013.68
1005.38 1005.64 1005.96 1006.53 1007.08 1007.61 1008.00 1008.78 1009.46 1009.94 1010.36 1010.87 1011.38 1011.83 1012.32 1012.51 1012.55 1012.94 1013.51 1013.78 1013.87 1013.84 1013.68 1013.69 1013.60 1013.80 1014.01 1014.40 1014.48 1014.43 1014.64 1014.97 1014.73 1014.39 1014.61 1014.21 1014.08 1014.10 1014.00 1013.79 1014.05 1013.80 1013.34
1005.44 1005.55 1005.84 1006.19 1006.67 1007.10 1007.61 1008.12 1008.94 1009.46 1009.96 1010.37 1010.74 1011.12 1011.48 1011.69 1011.77 1012.16 1012.72 1012.86 1013.40 1013.71 1013.72 1013.30 1013.34 1013.63 1013.92 1014.21 1014.54 1014.79 1015.10 1015.20 1015.01 1015.00 1014.72 1014.52 1014.25 1014.29 1014.10 1014.29 1014.35 1014.16 1013.67
1005.78 1005.92 1005.89 1005.94 1006.31 1006.77 1007.21 1007.71 1008.24 1008.79 1009.34 1009.75 1010.15 1010.49 1010.78 1011.09 1011.33 1011.81 1012.23 1012.42 1012.80 1012.98 1013.14 1013.18 1013.14 1012.83 1013.37 1013.55 1014.05 1014.47 1014.72 1014.87 1014.96 1014.95 1014.72 1014.42 1014.38 1014.44 1014.61 1014.41 1014.25 1014.25 1013.59
1005.73 1005.83 1006.04 1005.93 1005.90 1006.27 1006.63 1007.02 1007.66 1008.19 1008.55 1008.93 1009.41 1009.85 1010.19 1010.43 1010.85 1011.37 1011.74 1012.06 1012.10 1012.24 1012.50 1012.69 1012.84 1012.89 1013.41 1013.34 1013.67 1013.84 1013.85 1014.00 1014.26 1014.38 1014.37 1014.19 1014.35 1014.40 1014.40 1014.30 1014.37 1014.29 1013.69
1004.27 1005.71 1006.08 1005.60 1005.61 1005.67 1005.96 1006.34 1006.81 1007.39 1007.77 1007.98 1008.47 1008.89 1009.26 1009.66 1009.99 1010.59 1011.29 1011.41 1011.44 1011.62 1011.88 1011.98 1012.13 1012.62 1013.01 1013.29 1013.53 1013.40 1013.32 1013.39 1013.95 1014.04 1014.19 1014.26 1014.59 1014.81 1014.82 1014.56 1013.80 1013.33 1013.03
1004.88 1005.20 1005.78 1005.08 1005.04 1005.06 1005.32 1005.60 1006.01 1006.52 1006.95 1007.21 1007.58 1007.99 1008.21 1008.56 1009.12 1009.67 1010.32 1010.63 1010.57 1010.62 1010.84 1011.17 1011.55 1011.99 1012.49 1012.90 1013.18 1012.96 1012.96 1012.79 1013.21 1013.80 1014.25 1014.54 1014.51 1014.58 1014.84 1014.54 1013.86 1013.58 1013.29
1005.38 1005.73 1004.93 1004.45 1004.55 1004.51 1004.90 1005.10 1005.51 1005.98 1006.15 1006.83 1006.80 1007.19 1007.61 1007.96 1008.26 1008.90 1009.59 1009.85 1009.57 1009.55 1009.72 1010.32 1011.09 1011.94 1012.48 1012.81 1013.07 1012.85 1012.72 1012.60 1012.89 1012.85 1013.03 1013.06 1013.26 1013.48 1013.61 1013.84 1014.23 1014.02 1013.97
1005.32 1004.93 1004.28 1003.86 1003.85 1003.93 1004.24 1004.63 1004.97 1005.39 1005.73 1005.97 1006.40 1006.72 1006.74 1007.11 1007.44 1008.29 1008.91 1009.25 1009.11 1009.09 1009.31 1009.48 1010.60 1011.77 1012.23 1012.79 1012.99 1012.79 1012.68 1012.53 1012.17 1011.98 1011.96 1011.93 1012.12 1012.76 1013.56 1013.79 1014.20 1014.02 1014.25
1004.95 1004.52 1004.08 1003.64 1003.43 1003.41 1003.91 1004.47 1004.70 1004.97 1004.99 1005.49 1005.96 1006.13 1006.14 1006.45 1006.76 1007.85 1008.52 1009.02 1009.25 1009.42 1009.30 1009.42 1010.45 1011.49 1012.02 1012.77 1012.74 1012.67 1012.49 1012.20 1011.66 1011.27 1011.15 1011.49 1011.88 1012.69 1013.45 1014.08 1014.19 1014.18 1014.32
1004.07 1003.64 1003.25 1002.73 1002.99 1003.07 1003.36 1003.72 1003.43 1003.57 1003.97 1004.18 1004.74 1005.67 1006.57 1007.12 1007.11 1007.49 1008.36 1009.19 1009.45 1009.79 1010.10 1010.33 1010.73 1011.25 1011.86 1011.88 1012.41 1012.42 1011.91 1011.40 1010.98 1010.73 1010.82 1011.43 1012.19 1012.90 1013.15 1012.77 1012.76 1013.06 1012.88
1003.74 1003.27 1002.73 1002.12 1002.22 1002.53 1002.73 1002.90 1003.45 1003.29 1003.09 1003.20 1004.31 1005.32 1006.44 1007.07 1006.84 1006.26 1006.95 1008.26 1008.32 1008.28 1009.16 1010.06 1010.46 1010.97 1011.25 1011.23 1011.32 1011.23 1011.10 1010.77 1010.79 1010.55 1010.73 1011.40 1011.87 1012.04 1012.05 1012.30 1012.40 1012.08 1012.16
1003.46 1002.84 1001.80 1001.37 1002.20 1002.64 1003.32 1003.56 1003.96 1004.24 1004.73 1003.80 1004.56 1005.34 1005.92 1005.89 1006.81 1006.06 1006.93 1008.11 1007.84 1008.08 1008.75 1009.28 1009.74 1009.94 1009.93 1009.96 1009.93 1010.02 1010.07 1010.20 1010.48 1010.54 1010.91 1011.08 1011.33 1011.43 1011.59 1011.77 1012.26 1012.09 1011.86
1003.12 1002.67 1001.99 1001.74 1002.68 1002.98 1003.30 1003.93 1004.20 1003.93 1003.40 1005.21 1003.63 1003.94 1003.81 1005.59 1005.99 1007.01 1007.14 1007.80 1007.83 1008.02 1007.78 1007.95 1008.30 1008.85 1008.82 1008.71 1008.95 1009.13 1009.37 1009.75 1010.11 1010.17 1010.50 1010.74 1010.84 1010.93 1011.23 1011.38 1011.27 1011.49 1011.52
1002.74 1002.19 1001.80 1001.15 1001.31 1002.78 1002.91 1003.37 1003.70 1004.67 1004.44 1004.52 1005.15 1005.03 1004.53 1004.32 1005.50 1006.83 1007.34 1007.78 1008.86 1008.06 1007.08 1006.75 1007.45 1007.95 1007.93 1007.99 1008.28 1008.39 1008.62 1009.03 1009.68 1009.93 1010.10 1010.21 1010.37 1010.65 1010.82 1011.11 1011.00 1010.70 1010.72
1002.12 1001.33 1000.60 1000.13 1000.46 1001.76 1002.30 1002.97 1003.39 1003.21 1004.64 1004.01 1005.62 1005.11 1005.48 1005.42 1005.79 1006.72 1006.76 1007.22 1007.23 1006.91 1006.68 1006.18 1006.41 1006.72 1007.05 1007.12 1007.39 1007.75 1007.90 1008.29 1008.71 1009.52 1010.01 1010.25 1010.42 1010.87 1011.09 1011.09 1010.44 1010.33 1010.68
1001.27 1000.91 1000.30 999.74 999.37 1000.12 1000.60 1001.50 1002.06 1002.69 1003.33 1003.02 1004.01 1003.99 1005.32 1005.92 1006.35 1006.83 1006.84 1006.39 1005.96 1005.76 1005.67 1005.48 1005.28 1005.50 1005.79 1006.34 1006.74 1007.31 1007.62 1008.26 1009.04 1009.55 1009.53 1009.63 1009.66 1009.80 1009.89 1009.81 1009.97 1010.06 1009.84
1000.26 999.59 999.40 999.26 999.01 999.38 999.55 999.76 1000.35 1001.08 1002.02 1002.03 1002.44 1002.67 1003.27 1004.09 1004.86 1005.24 1005.25 1004.91 1004.69 1004.69 1004.72 1004.80 1004.84 1005.19 1005.68 1006.26 1006.66 1007.38 1008.11 1008.41 1008.70 1008.84 1008.84 1009.10 1009.19 1009.04 1009.30 1009.41 1009.52 1009.95 1009.87
999.45 998.77 998.11 997.89 998.12 998.21 999.20 1000.04 999.74 1000.17 1000.53 1000.67 1000.95 1001.55 1001.96 1002.72 1003.03 1003.63 1004.19 1003.96 1003.76 1004.00 1003.97 1004.46 1004.70 1005.15 1005.49 1006.13 1006.76 1007.22 1007.89 1008.10 1008.05 1008.60 1008.63 1008.78 1008.24 1008.65 1008.84 1008.74 1008.90 1009.04 1009.09
998.74 998.28 997.55 997.18 997.14 997.57 998.69 999.23 999.81 1000.03 999.26 999.37 999.46 1000.96 1001.59 1001.45 1001.64 1002.15 1002.62 1003.03 1003.10 1003.23 1003.89 1004.48 1004.83 1004.98 1004.94 1005.46 1006.22 1006.83 1007.28 1007.33 1007.42 1007.85 1008.30 1007.72 1007.94 1007.97 1008.07 1008.23 1008.31 1008.31 1008.44
998.04 997.82 997.13 996.32 996.10 997.23 997.88 998.49 998.13 998.40 998.50 998.79 999.56 1000.12 1000.46 1000.50 1000.79 1000.69 1001.35 1001.98 1002.82 1003.26 1003.45 1003.63 1004.39 1004.57 1004.56 1004.82 1005.19 1006.14 1005.99 1006.47 1006.67 1007.30 1007.07 1006.99 1007.05 1007.20 1007.53 1007.50 1007.54 1007.51 1007.59
997.12 996.56 996.66 996.15 996.19 996.76 997.13 997.46 997.19 997.55 997.80 998.30 998.15 999.59 999.39 999.58 999.84 999.85 1000.30 1000.36 1001.39 1002.11 1002.41 1002.91 1003.31 1003.68 1004.60 1005.04 1005.38 1005.59 1006.75 1007.03 1006.91 1006.99 1006.42 1006.96 1007.35 1006.92 1006.96 1007.01 1007.27 1007.37 1007.34
996.26 995.90 996.33 996.47 995.80 996.68 997.41 997.45 996.90 997.00 997.66 997.45 998.01 998.47 998.79 998.78 999.03 998.85 998.88 999.98 1000.92 1001.49 1001.82 1002.32 1003.09 1003.87 1004.60 1005.06 1006.43 1007.05 1007.41 1007.49 1007.35 1007.36 1006.91 1006.72 1006.91 1007.11 1007.01 1007.24 1007.20 1007.31 1007.39
Thickness
5808 5804 5798 5795 5793 5789 5788 5786 5783 5783 5782 5778 5774 5773 5770 5769 5766 5767 5770 5775 5773 5773 5776 5778 5779 5780 5781 5788 5791 5787 5788 5787 5778 5785 5794 5799 5796 5794 5794 5793 5793 5795 5798
5812 5807 5801 5798 5795 5791 5789 5788 5785 5781 5781 5778 5775 5772 5770 5769 5769 5769 5769 5772 5771 5772 5774 5776 5776 5779 5777 5779 5782 5783 5783 5784 5778 5775 5781 5786 5789 5793 5793 5791 5789 5792 5795
5817 5810 5804 5799 5794 5792 5790 5790 5786 5783 5781 5780 5775 5770 5768 5769 5769 5770 5770 5770 5772 5773 5774 5776 5776 5775 5772 5775 5775 5780 5781 5777 5778 5773 5773 5781 5786 5792 5791 5790 5790 5789 5790
5819 5814 5807 5802 5799 5797 5795 5791 5790 5787 5783 5781 5780 5774 5771 5771 5771 5772 5769 5768 5769 5772 5774 5777 5777 5775 5772 5772 5773 5773 5775 5773 5775 5773 5774 5777 5781 5785 5788 5782 5778 5782 5781
5815 5812 5809 5806 5803 5800 5798 5792 5788 5786 5783 5782 5779 5777 5774 5774 5776 5774 5770 5768 5769 5769 5773 5775 5778 5777 5777 5774 5773 5773 5771 5767 5770 5770 5765 5769 5769 5769 5769 5775 5769 5772 5775
5807 5807 5808 5806 5801 5798 5795 5792 5787 5783 5781 5778 5777 5776 5776 5777 5778 5775 5774 5772 5768 5764 5764 5772 5776 5775 5772 5770 5767 5765 5763 5760 5760 5758 5761 5761 5764 5765 5768 5763 5760 5755 5754
5793 5795 5799 5802 5798 5795 5792 5790 5787 5782 5779 5777 5776 5775 5775 5776 5776 5774 5771 5771 5767 5765 5765 5766 5768 5775 5772 5772 5765 5760 5758 5758 5757 5757 5756 5759 5759 5759 5758 5757 5758 5755 5757
5780 5784 5787 5791 5795 5793 5791 5789 5785 5782 5780 5777 5775 5774 5773 5776 5774 5770 5769 5769 5769 5769 5768 5767 5766 5767 5765 5766 5762 5759 5758 5762 5759 5758 5758 5761 5762 5761 5758 5757 5754 5752 5756
5760 5762 5773 5782 5787 5790 5789 5787 5786 5782 5780 5779 5776 5773 5772 5773 5773 5770 5767 5768 5768 5767 5768 5770 5769 5766 5763 5759 5757 5754 5756 5756 5753 5753 5753 5755 5753 5751 5750 5750 5752 5751 5749
5759 5757 5761 5778 5783 5786 5789 5786 5785 5783 5780 5779 5778 5778 5777 5776 5774 5772 5770 5770 5768 5769 5771 5771 5768 5766 5760 5755 5754 5754 5752 5756 5756 5752 5751 5749 5749 5748 5745 5743 5745 5741 5742
5752 5750 5755 5775 5778 5783 5784 5783 5781 5779 5779 5773 5776 5776 5775 5777 5776 5771 5767 5771 5773 5771 5772 5769 5766 5757 5754 5751 5749 5753 5753 5756 5753 5755 5755 5756 5754 5751 5748 5741 5735 5734 5731
5742 5751 5762 5770 5775 5778 5779 5777 5778 5775 5773 5772 5770 5770 5775 5777 5776 5769 5766 5767 5771 5770 5767 5770 5764 5750 5748 5745 5744 5747 5749 5751 5755 5756 5756 5755 5753 5747 5740 5736 5729 5729 5725
5728 5739 5749 5758 5766 5769 5766 5765 5767 5768 5769 5766 5763 5765 5769 5773 5774 5767 5762 5760 5760 5762 5764 5765 5753 5744 5741 5739 5740 5741 5742 5748 5751 5753 5753 5751 5748 5741 5733 5726 5723 5721 5719
5720 5731 5742 5752 5754 5762 5764 5766 5772 5772 5769 5768 5765 5759 5754 5753 5758 5761 5757 5751 5750 5751 5748 5748 5744 5740 5737 5741 5737 5738 5745 5749 5751 5751 5750 5746 5739 5731 5726 5730 5726 5723 5722
5708 5718 5732 5745 5749 5754 5759 5759 5760 5766 5768 5767 5759 5752 5743 5739 5748 5760 5761 5752 5753 5756 5748 5741 5737 5735 5737 5740 5740 5742 5744 5747 5746 5747 5744 5736 5731 5729 5727 5725 5722 5723 5719
5694 5706 5723 5736 5737 5742 5735 5736 5739 5736 5738 5753 5744 5744 5744 5744 5736 5746 5746 5742 5746 5745 5742 5737 5735 5738 5740 5742 5743 5743 5745 5743 5741 5739 5735 5732 5727 5726 5723 5720 5714 5713 5712
5684 5693 5707 5720 5718 5720 5723 5721 5721 5729 5703 5720 5747 5726 5747 5735 5740 5733 5736 5730 5733 5736 5742 5743 5744 5740 5742 5745 5744 5743 5741 5740 5738 5736 5731 5727 5725 5723 5717 5713 5713 5709 5707
5676 5683 5695 5712 5719 5707 5715 5714 5713 5708 5705 5708 5723 5733 5739 5744 5739 5729 5727 5727 5717 5727 5741 5746 5742 5739 5742 5743 5741 5741 5741 5738 5731 5729 5726 5723 5721 5716 5712 5706 5707 5708 5707
5668 5682 5696 5709 5712 5701 5705 5705 5707 5714 5706 5720 5712 5723 5719 5719 5721 5718 5721 5725 5725 5728 5734 5742 5742 5741 5740 5742 5741 5738 5739 5737 5732 5724 5718 5714 5711 5704 5699 5700 5705 5703 5699
5666 5673 5686 5699 5708 5704 5707 5709 5708 5712 5714 5723 5719 5728 5717 5716 5716 5713 5716 5723 5729 5731 5734 5738 5743 5743 5744 5741 5738 5734 5732 5728 5721 5715 5714 5711 5710 5707 5703 5704 5702 5699 5700
5663 5676 5684 5692 5699 5702 5709 5715 5718 5719 5718 5726 5728 5734 5728 5728 5724 5723 5726 5730 5731 5732 5734 5737 5739 5739 5737 5734 5731 5725 5719 5717 5715 5713 5712 5708 5706 5704 5702 5701 5698 5692 5692
5659 5671 5685 5692 5697 5704 5703 5705 5714 5717 5721 5726 5731 5730 5723 5732 5733 5729 5725 5728 5731 5731 5736 5735 5734 5732 5732 5727 5722 5718 5712 5710 5712 5707 5704 5701 5706 5700 5698 5697 5694 5691 5690
5654 5665 5680 5689 5696 5698 5699 5702 5703 5706 5721 5726 5730 5724 5725 5731 5734 5731 5730 5727 5728 5730 5729 5728 5727 5727 5730 5726 5719 5715 5710 5709 5710 5706 5699 5703 5700 5698 5696 5692 5690 5689 5687
5653 5661 5674 5686 5693 5692 5694 5697 5708 5712 5718 5721 5716 5719 5726 5729 5729 5734 5731 5727 5722 5721 5726 5729 5724 5724 5725 5723 5722 5714 5715 5709 5707 5703 5705 5702 5699 5696 5691 5689 5688 5688 5687
5657 5667 5671 5680 5685 5689 5691 5698 5708 5711 5716 5719 5724 5717 5728 5731 5728 5730 5729 5734 5727 5724 5726 5727 5726 5725 5717 5713 5711 5707 5702 5698 5696 5696 5699 5692 5687 5689 5687 5685 5682 5679 5678
5660 5668 5668 5672 5684 5684 5684 5692 5703 5709 5709 5718 5719 5720 5724 5728 5725 5729 5732 5727 5722 5721 5722 5722 5719 5711 5711 5704 5694 5690 5688 5686 5684 5683 5684 5686 5682 5678 5676 5673 5672 5669 5666